Вернуться в каталог

USA 259

АктивенВоенныеHEO
NORAD 40344·PAYLOAD·🇺🇸 United States

Запущен Dec 13, 2014 с Vandenberg Space Force Base

Loading…

Ближайшие Пролёты (ближайшие 24 часа)

TLE

СвежийSource: Mike McCants

Эпоха: Sep 14, 2026, 17:48 UTC

1 40344U 14081A   26257.74185183  .00000202  00000-0  00000-0 0    05
2 40344  63.1235  62.3894 7105988 272.4777  15.2326  2.00612648  1394

Отслеживайте USA 259 в реальном времени с AllMySat

Download on the App Store